Location: Borgo
(42.3939°N, 9.2791°E)
Time: 09:26:11
(UTC+00:00)

Envisat - Visible Passes

Search period start: 17 April 2021 00:00
Search period end: 27 April 2021 00:00
Orbit: 764 x 766 km, 98.1° (Epoch: 16 April)

Date Brightness Start Highest point End Pass type
(mag) Time Alt. Az. Time Alt. Az. Time Alt. Az.
17 Apr 5.8 03:49:54 10° NE 03:53:24 18° E 03:56:52 10° SE visible
20 Apr 5.9 03:39:06 10° ENE 03:41:50 14° E 03:44:32 10° ESE visible
23 Apr 6.2 03:28:52 10° ENE 03:30:14 11° E 03:31:37 10° ESE visible
25 Apr 5.7 03:52:14 10° NE 03:55:56 20° E 03:59:36 10° SE visible
